[[{"header":{"parameterUnit":"m.s-1","parameterCategory":2,"la1":30.2991,"la2":30.254,"lo1":-89.0895,"lo2":-89.0444,"dy":0.0017,"dx":0.0017,"nx":28,"ny":28,"refTime":"2025-04-13T09:00:00:Z","depth":"0","parameterNumber":2,"parameterNumberName":"U-component_of_CURRENTS"},"data":[0,0,0,0,0,0,0,0,0,0,0,0,0,0,0,0,0,0,0,0,0,0,0,0,0,0,0,0,0,0,0,0,0,0,0,0,0,0,0,0,0,0,0,0,0,0,0,0,0,0,0,0,0,0,0,0,0,0,0.2394,0.2394,0,0.243,0.243,0.243,0.2427,0.2426,0.2426,0.2425,0.2564,0.2568,0.2573,0,0,0,0,0,0,0,0,0,0,0,0,0,0.2394,0.2394,0.2393,0.2394,0.2394,0.2429,0.243,0.2431,0.2427,0.2426,0.2425,0.2425,0.2563,0.2568,0.2573,0,0,0,0,0,0,0,0,0,0,0,0,0,0.2409,0.2394,0.2393,0.2396,0.2397,0.2429,0.243,0.2431,0.2427,0.2426,0.2425,0.2424,0.2561,0.2567,0.2574,0.2633,0,0,0.2593,0.2596,0,0,0,0,0,0,0,0,0.2408,0.2409,0.2395,0.2396,0.2397,0.2422,0.2481,0.2503,0.2427,0.2416,0.2425,0.2424,0.2527,0.2536,0.2544,0.2639,0.2645,0.2594,0.2598,0.2601,0.2602,0,0,0,0,0,0,0,0.2407,0.2408,0.2409,0.2396,0.2397,0.242,0.2421,0.2485,0.2479,0.2417,0.2417,0.242,0.2527,0.2538,0.2548,0.2647,0.2594,0.26,0.2604,0.2606,0.2788,0.2789,0,0,0,0,0,0,0.2398,0.2407,0.2407,0.241,0.2399,0.2421,0.2421,0.2415,0.2476,0.2483,0.2421,0.242,0.2527,0.254,0.2553,0.2649,0.2601,0.2607,0.261,0.2787,0.2788,0.2789,0,0,0,0,0,0,0.2398,0.2398,0.2406,0.2409,0.2412,0.2421,0.2415,0.2417,0.2425,0.2477,0.2486,0.2427,0.2527,0.2544,0.2608,0.2654,0.261,0.2615,0.2786,0.2787,0.2788,0.2828,0,0,0,0,0,0,0.2398,0.2397,0.2397,0.2408,0.2411,0.243,0.2416,0.2418,0.2428,0.2427,0.2486,0.2498,0.2528,0.2598,0.2614,0.2662,0.262,0.2784,0.2786,0.2788,0.2825,0.283,0.2835,0,0,0,0,0,0.2398,0.2404,0.2397,0.2397,0.2408,0.2431,0.2435,0.244,0.2429,0.2442,0.2474,0.2496,0.262,0.2604,0.2623,0.2674,0.2783,0.2786,0.2788,0.2823,0.2829,0.2835,0,0,0,0,0,0,0.242,0.2404,0.2397,0.2401,0.2415,0.243,0.2444,0.2443,0.2476,0.2478,0.2516,0.2531,0.2604,0.2627,0.2608,0.2726,0.2704,0.2709,0.2724,0.273,0.2735,0.2737,0.2626,0,0,0,0,0,0.242,0.2411,0.2413,0.2421,0.2425,0.2433,0.2444,0.2447,0.2474,0.2485,0.2523,0.2569,0.2629,0.2667,0.2716,0.2791,0.2832,0.283,0.2835,0.2839,0.2851,0.294,0.2955,0.2796,0.2796,0.2796,0,0,0.2435,0.2424,0.2423,0.2424,0.2433,0.2456,0.2438,0.2457,0.249,0.2502,0.256,0.2592,0.2649,0.2725,0.276,0.2753,0.2908,0.2842,0.2845,0.2855,0.2944,0.296,0.2974,0.2797,0.2797,0.2797,0,0,0.2462,0.2447,0.2449,0.2459,0.2468,0.2478,0.2482,0.2498,0.2516,0.2572,0.2589,0.2641,0.2726,0.2777,0.2815,0.2878,0.2926,0.2891,0.2932,0.3018,0.3033,0.3046,0.3129,0.3149,0.2899,0.2899,0.2899,0,0.2483,0.2479,0.2462,0.2474,0.2489,0.2487,0.2513,0.2542,0.2579,0.2615,0.2595,0.2722,0.2757,0.2871,0.2879,0.2894,0.2945,0.2909,0.3027,0.3041,0.3053,0.3135,0.3157,0.2901,0.2901,0.2901,0.2901,0,0.2511,0.2514,0.2522,0.2528,0.2549,0.2571,0.2599,0.2634,0.2649,0.268,0.2774,0.2814,0.2891,0.2908,0.2915,0.3027,0.3036,0.302,0.3016,0.3072,0.3154,0.3176,0.2904,0.2904,0.2903,0.2903,0,0,0.2532,0.2538,0.254,0.2549,0.2576,0.2594,0.2663,0.2724,0.2779,0.282,0.2909,0.2978,0.2987,0.3028,0.3048,0.3111,0.3233,0.31,0.3104,0.3189,0.3435,0.3378,0.3397,0.3242,0.3246,0.3249,0.3461,0,0.2558,0.2581,0.2585,0.2628,0.2642,0.2673,0.2737,0.2798,0.2852,0.294,0.3,0.3084,0.3041,0.3084,0.3141,0.322,0.3291,0.3178,0.3362,0.3368,0.3316,0.342,0.3244,0.3412,0.3482,0.3486,0.3489,0,0.2575,0.2585,0.2623,0.2664,0.2676,0.271,0.2806,0.2867,0.2993,0.3042,0.3132,0.318,0.3298,0.3235,0.341,0.3343,0.3389,0.3432,0.3442,0.339,0.3352,0.3364,0.345,0.3326,0.3523,0.352,0.3517,0,0.2574,0.2609,0.2636,0.2649,0.2705,0.2743,0.2788,0.2897,0.2973,0.3117,0.3193,0.3319,0.3402,0.3488,0.3554,0.3506,0.3737,0.3689,0.3687,0.3684,0.3571,0.3551,0.356,0.381,0.381,0.3809,0.3808,0,0.2588,0.2609,0.2632,0.2646,0.27,0.2739,0.283,0.2902,0.3034,0.3143,0.3237,0.335,0.3465,0.3595,0.3635,0.3742,0.3812,0.3729,0.3747,0.3578,0.3557,0.347,0.3424,0.3817,0.3815,0.3814,0.3812,0,0.2589,0.2602,0.2632,0.2679,0.2695,0.2738,0.2842,0.2922,0.3035,0.3192,0.3249,0.3425,0.3596,0.3703,0.3869,0.3849,0.3841,0.3959,0.3749,0.3737,0.3585,0.3548,0.3515,0.3417,0.4017,0.4017,0.4017,0,0.2595,0.2605,0.2644,0.2676,0.2697,0.2761,0.282,0.2918,0.3003,0.323,0.3309,0.352,0.3654,0.3881,0.3904,0.401,0.3868,0.3879,0.3738,0.3583,0.3558,0.342,0.3329,0.362,0.3617,0.3614,0.3612,0,0.2617,0.2625,0.266,0.2709,0.2755,0.2799,0.2875,0.2928,0.3069,0.3188,0.336,0.349,0.3708,0.374,0.3857,0.3876,0.3668,0.3826,0.3728,0.3309,0.3101,0.3011,0.3479,0.3589,0.3591,0.3593,0.3594,0.3595,0.2646,0.2673,0.2714,0.2757,0.2799,0.2814,0.282,0.2907,0.2998,0.3132,0.3313,0.3435,0.3543,0.3684,0.3687,0.3526,0.3544,0.3388,0.3383,0.3279,0.3081,0.3496,0.3574,0.3576,0.3578,0.3579,0.3581,0,0.2684,0.2714,0.2764,0.2781,0.2787,0.2811,0.2844,0.2823,0.2862,0.3027,0.3152,0.3231,0.3256,0.3298,0.3217,0.3091,0.2937,0.2987,0.2738,0.2693,0.3124,0.2997,0.2874,0.2874,0.2875,0.2875,0.2875,0.2875,0.2718,0.2761,0.2766,0.2754,0.2755,0.2696,0.268,0.2657,0.2708,0.2735,0.2765,0.2869,0.2967,0.2962,0.2803,0.2729,0.2514,0.2394,0.2424,0.2698,0.2733,0.2766,0.2633,0.2436,0.2436,0.1836,0.1831,0.1828]},{"header":{"parameterUnit":"m.s-1","parameterCategory":2,"la1":30.2991,"la2":30.254,"lo1":-89.0895,"lo2":-89.0444,"dy":0.0017,"dx":0.0017,"nx":28,"ny":28,"refTime":"2025-04-13T09:00:00:Z","depth":"0","parameterNumber":3,"parameterNumberName":"V-component_of_CURRENTS"},"data":[0,0,0,0,0,0,0,0,0,0,0,0,0,0,0,0,0,0,0,0,0,0,0,0,0,0,0,0,0,0,0,0,0,0,0,0,0,0,0,0,0,0,0,0,0,0,0,0,0,0,0,0,0,0,0,0,0,0,0.0218,0.0218,0,0.0166,0.0165,0.0165,0.0129,0.0128,0.0128,0.0128,0.0084,0.0083,0.0082,0,0,0,0,0,0,0,0,0,0,0,0,0,0.0248,0.0248,0.0218,0.0218,0.0217,0.0166,0.0165,0.0165,0.0129,0.0128,0.0128,0.0128,0.0084,0.0083,0.0082,0,0,0,0,0,0,0,0,0,0,0,0,0,0.0219,0.0248,0.0218,0.0193,0.019,0.0166,0.0165,0.0164,0.0129,0.0128,0.0128,0.0128,0.0085,0.0083,0.0082,0.008,0,0,0.0078,0.0077,0,0,0,0,0,0,0,0,0.0221,0.0218,0.0197,0.0195,0.0192,0.0154,0.016,0.0137,0.0129,0.0152,0.0128,0.0127,0.0109,0.0105,0.0096,0.0078,0.0077,0.0077,0.0077,0.0076,0.0076,0,0,0,0,0,0,0,0.0223,0.022,0.0197,0.0197,0.0193,0.0171,0.0167,0.0155,0.0133,0.015,0.0147,0.0142,0.0107,0.0097,0.0094,0.0076,0.0077,0.0076,0.0075,0.0075,0.0054,0.0054,0,0,0,0,0,0,0.0233,0.0222,0.0199,0.0196,0.0206,0.0171,0.0166,0.0166,0.0133,0.0127,0.0142,0.014,0.01,0.0096,0.0093,0.0109,0.0076,0.0075,0.0074,0.0053,0.0054,0.0054,0,0,0,0,0,0,0.0234,0.0231,0.0201,0.0208,0.0202,0.0171,0.0171,0.0165,0.0157,0.0127,0.0121,0.0141,0.0099,0.0095,0.0094,0.0106,0.0074,0.0073,0.0053,0.0054,0.0054,0.0129,0,0,0,0,0,0,0.0235,0.0232,0.0236,0.0209,0.0202,0.0196,0.0171,0.0164,0.0155,0.0152,0.0124,0.0119,0.0099,0.0096,0.0092,0.0104,0.0072,0.0053,0.0053,0.0054,0.0126,0.0132,0.0137,0,0,0,0,0,0.0236,0.0247,0.0237,0.0234,0.0209,0.0196,0.0192,0.0167,0.0155,0.0158,0.0142,0.012,0.0096,0.0096,0.0091,0.0102,0.0052,0.0053,0.0054,0.0124,0.0131,0.0137,0,0,0,0,0,0,0.0267,0.0243,0.0232,0.0236,0.0221,0.0191,0.019,0.0173,0.0162,0.016,0.0131,0.0126,0.0127,0.0103,0.0104,0.0095,0.0068,0.0067,0.0122,0.0128,0.0134,0.0158,0.007,0,0,0,0,0,0.0275,0.0273,0.025,0.0254,0.0248,0.022,0.0212,0.0196,0.0181,0.0174,0.0155,0.0134,0.0125,0.0119,0.0103,0.0105,0.0096,0.0105,0.0111,0.0115,0.013,0.0133,0.014,0.0056,0.0056,0.0056,0,0,0.0288,0.0275,0.0274,0.026,0.0245,0.025,0.0215,0.0208,0.0217,0.0173,0.018,0.0154,0.0129,0.0131,0.0128,0.0115,0.0134,0.0116,0.0121,0.0133,0.0134,0.0143,0.015,0.0057,0.0057,0.0057,0,0,0.0318,0.0303,0.0313,0.0305,0.0287,0.0272,0.0274,0.0248,0.0243,0.0244,0.0215,0.0204,0.0182,0.0171,0.0162,0.0188,0.0162,0.0172,0.0221,0.0224,0.0231,0.0238,0.024,0.0246,0.0175,0.0175,0.0175,0,0.0336,0.0347,0.0315,0.0326,0.0327,0.0288,0.0307,0.0297,0.0276,0.0287,0.0256,0.0239,0.0205,0.0226,0.0223,0.0202,0.0198,0.0203,0.0233,0.0239,0.0245,0.0245,0.0251,0.0179,0.0178,0.0178,0.0177,0,0.0374,0.0384,0.0392,0.0392,0.0388,0.0397,0.038,0.0383,0.0366,0.0358,0.0368,0.0324,0.0317,0.0295,0.0264,0.0286,0.0269,0.0242,0.0224,0.0258,0.0256,0.026,0.0184,0.0183,0.0181,0.0181,0,0,0.0415,0.042,0.0423,0.0442,0.0426,0.0433,0.0451,0.0467,0.0507,0.0465,0.0514,0.0461,0.0433,0.042,0.0377,0.0367,0.0385,0.0321,0.0319,0.0335,0.0395,0.037,0.0372,0.0365,0.0367,0.0367,0.0379,0,0.0459,0.0504,0.0485,0.053,0.0556,0.0532,0.0565,0.0572,0.0572,0.0609,0.0563,0.0588,0.0484,0.0494,0.0459,0.0418,0.0401,0.0385,0.0348,0.0347,0.0331,0.0378,0.0355,0.0362,0.0384,0.0384,0.0385,0,0.0504,0.0531,0.0583,0.0625,0.0634,0.0654,0.0708,0.0736,0.0768,0.0773,0.0767,0.0737,0.0719,0.0629,0.0559,0.0556,0.0477,0.0429,0.0428,0.0384,0.0331,0.0328,0.037,0.022,0.0392,0.0391,0.0391,0,0.0561,0.0601,0.065,0.0659,0.0696,0.0725,0.0755,0.0792,0.086,0.0894,0.0954,0.0894,0.0913,0.0798,0.0664,0.0624,0.0596,0.053,0.0432,0.0429,0.0394,0.0386,0.0298,0.0482,0.0482,0.0482,0.0482,0,0.0619,0.0663,0.0686,0.0716,0.0806,0.0799,0.0911,0.0932,0.1012,0.113,0.1051,0.1132,0.0958,0.0911,0.0743,0.0616,0.0653,0.0461,0.0439,0.0417,0.0412,0.0265,0.0175,0.0482,0.0482,0.0482,0.0482,0,0.0685,0.0691,0.0763,0.0812,0.0835,0.0909,0.1028,0.1128,0.1173,0.1329,0.1359,0.1344,0.128,0.1093,0.0939,0.0756,0.0527,0.0552,0.0537,0.0512,0.0258,0.0175,0.0078,0.0018,0.0452,0.0451,0.0451,0,0.0731,0.0772,0.0843,0.0914,0.0943,0.1051,0.1149,0.1209,0.133,0.1472,0.1571,0.1555,0.1567,0.1319,0.0999,0.0725,0.055,0.0512,0.0415,0.0261,0.0152,0.0093,0.0046,0.0397,0.0396,0.0395,0.0395,0,0.084,0.0855,0.0925,0.1057,0.1157,0.1278,0.1415,0.1523,0.1632,0.1755,0.1901,0.1922,0.1691,0.1404,0.1014,0.0802,0.0402,0.049,0.0339,0.0115,0.004,-0.0033,0.0369,0.0389,0.039,0.039,0.039,0.039,0.094,0.1016,0.1105,0.1227,0.1349,0.1492,0.1597,0.1754,0.1933,0.211,0.2131,0.217,0.174,0.1207,0.0924,0.0361,0.0375,0.0169,0.0087,0.0048,-0.0034,0.0358,0.0342,0.0343,0.0343,0.0343,0.0343,0,0.1056,0.114,0.1277,0.1414,0.1542,0.1572,0.1772,0.188,0.2074,0.2241,0.2348,0.2124,0.1628,0.1098,0.0345,0.0005,-0.0116,-0.0179,-0.0281,-0.0305,0.0051,0.0022,-0.0072,-0.0072,-0.0072,-0.0072,-0.0071,-0.0071,0.1136,0.1269,0.1321,0.1538,0.1633,0.1785,0.1879,0.2048,0.2188,0.2327,0.2319,0.2299,0.1831,0.0604,-0.0195,-0.0362,-0.0584,-0.0639,-0.072,-0.051,-0.0484,-0.0459,-0.0507,-0.0711,-0.0712,-0.1042,-0.1046,-0.1049]}],[{"header":{"parameterUnit":"m.s-1","parameterCategory":2,"la1":30.2991,"la2":30.254,"lo1":-89.0895,"lo2":-89.0444,"dy":0.0017,"dx":0.0017,"nx":28,"ny":28,"refTime":"2025-04-13T09:00:00:Z","depth":"2","parameterNumber":2,"parameterNumberName":"U-component_of_CURRENTS"},"data":[0,0,0,0,0,0,0,0,0,0,0,0,0,0,0,0,0,0,0,0,0,0,0,0,0,0,0,0,0,0,0,0,0,0,0,0,0,0,0,0,0,0,0,0,0,0,0,0,0,0,0,0,0,0,0,0,0,0,0.2172,0.2173,0,0.2206,0.2206,0.2206,0.221,0.221,0.2209,0.2209,0.2331,0.2334,0.2338,0,0,0,0,0,0,0,0,0,0,0,0,0,0.2136,0.2136,0.2172,0.2173,0.2173,0.2206,0.2206,0.2206,0.221,0.221,0.2209,0.2209,0.233,0.2334,0.2338,0,0,0,0,0,0,0,0,0,0,0,0,0,0.2158,0.2136,0.2172,0.2179,0.2181,0.2205,0.2206,0.2206,0.221,0.221,0.2209,0.2209,0.2329,0.2334,0.2339,0.2379,0,0,0.2355,0.2357,0,0,0,0,0,0,0,0,0.2156,0.2159,0.2178,0.2179,0.218,0.2204,0.2238,0.2269,0.221,0.2198,0.2209,0.2209,0.2298,0.2305,0.231,0.2384,0.239,0.2355,0.2358,0.2361,0.2362,0,0,0,0,0,0,0,0.2155,0.2158,0.2184,0.2178,0.218,0.219,0.2192,0.2243,0.225,0.2199,0.2199,0.2205,0.2299,0.2305,0.2313,0.2391,0.2355,0.236,0.2363,0.2365,0.25,0.2501,0,0,0,0,0,0,0.2152,0.2156,0.2183,0.2186,0.2168,0.2191,0.2193,0.2196,0.2248,0.2255,0.2205,0.2205,0.2296,0.2307,0.2318,0.2406,0.2361,0.2365,0.2368,0.25,0.2501,0.2501,0,0,0,0,0,0,0.2151,0.2154,0.2182,0.2172,0.2177,0.2191,0.2195,0.2197,0.2207,0.2252,0.226,0.2214,0.2296,0.231,0.236,0.2409,0.2368,0.2373,0.2499,0.25,0.2501,0.2559,0,0,0,0,0,0,0.215,0.2153,0.2159,0.2172,0.2177,0.2204,0.2195,0.2198,0.2211,0.2211,0.2263,0.2273,0.2297,0.2351,0.2365,0.2416,0.2377,0.2499,0.25,0.2501,0.2557,0.2562,0.2566,0,0,0,0,0,0.2148,0.2158,0.2159,0.2163,0.2183,0.2205,0.2209,0.2217,0.2212,0.2223,0.2248,0.2271,0.2366,0.2356,0.2372,0.2426,0.2498,0.2499,0.2501,0.2555,0.2561,0.2566,0,0,0,0,0,0,0.2146,0.216,0.2161,0.2175,0.2191,0.2206,0.2219,0.2221,0.2247,0.2251,0.2283,0.2296,0.2362,0.2372,0.236,0.246,0.2435,0.2439,0.2471,0.2477,0.2482,0.2477,0.2381,0,0,0,0,0,0.2148,0.2159,0.2173,0.2186,0.2195,0.2207,0.2218,0.2224,0.2246,0.2256,0.2287,0.2324,0.2378,0.2407,0.2448,0.2507,0.2529,0.2545,0.255,0.2554,0.2557,0.2619,0.263,0.2504,0.2504,0.2504,0,0,0.2154,0.2161,0.217,0.2187,0.22,0.2223,0.2213,0.2234,0.2262,0.227,0.2318,0.2349,0.2395,0.246,0.249,0.2477,0.2604,0.2556,0.256,0.256,0.2621,0.2634,0.2645,0.2505,0.2505,0.2505,0,0,0.2167,0.2175,0.2188,0.2204,0.2225,0.2239,0.2246,0.2265,0.2283,0.2327,0.2347,0.2396,0.2462,0.2508,0.2541,0.2593,0.2629,0.2608,0.2638,0.2698,0.271,0.272,0.2781,0.2796,0.2609,0.261,0.261,0,0.2179,0.2189,0.2197,0.2215,0.2234,0.2247,0.2271,0.23,0.2332,0.2359,0.2347,0.2455,0.2489,0.259,0.26,0.2612,0.2644,0.262,0.2708,0.2718,0.2728,0.2787,0.2804,0.2613,0.2612,0.2612,0.2612,0,0.2193,0.2212,0.2224,0.2252,0.2274,0.2299,0.2334,0.2365,0.2384,0.2412,0.2497,0.2537,0.2601,0.2624,0.2631,0.2725,0.2728,0.2712,0.2699,0.2745,0.2804,0.282,0.2617,0.2616,0.2615,0.2614,0,0,0.2197,0.2229,0.2235,0.2253,0.2296,0.2314,0.2374,0.2431,0.2485,0.2519,0.2595,0.2666,0.2683,0.2718,0.2746,0.2787,0.2885,0.2775,0.2777,0.2846,0.3028,0.292,0.2926,0.2889,0.2892,0.2894,0.3049,0,0.2212,0.2244,0.226,0.2306,0.2329,0.2367,0.2422,0.2478,0.2538,0.2618,0.2673,0.2759,0.2726,0.2777,0.2813,0.2877,0.2926,0.2845,0.2963,0.2966,0.2874,0.294,0.27,0.2807,0.3064,0.3067,0.3069,0,0.2216,0.224,0.2278,0.2334,0.2348,0.2384,0.2479,0.2532,0.2649,0.2702,0.2788,0.2839,0.2936,0.289,0.3013,0.2965,0.2997,0.3026,0.3033,0.2918,0.2886,0.2799,0.2826,0.3095,0.3093,0.3091,0.3089,0,0.2199,0.2253,0.2281,0.2299,0.2366,0.2402,0.2451,0.2557,0.2628,0.2775,0.2851,0.2954,0.3034,0.3083,0.3123,0.309,0.3242,0.3211,0.3148,0.3142,0.2951,0.2922,0.3294,0.3294,0.3293,0.3293,0.3292,0,0.2197,0.223,0.2278,0.2292,0.2353,0.2398,0.2486,0.2565,0.2696,0.2799,0.2895,0.3001,0.3083,0.317,0.3183,0.3212,0.3297,0.317,0.3177,0.2963,0.2935,0.3181,0.3166,0.3299,0.3297,0.3296,0.3295,0,0.2183,0.2208,0.2252,0.2316,0.2343,0.239,0.2503,0.2574,0.2701,0.2851,0.2908,0.3072,0.3187,0.3248,0.3355,0.3292,0.3332,0.3318,0.3057,0.3028,0.3184,0.317,0.3286,0.3284,0.3281,0.328,0.3278,0,0.2179,0.2198,0.226,0.23,0.2336,0.2409,0.2462,0.2574,0.2674,0.2884,0.2969,0.3127,0.3201,0.3307,0.3268,0.3286,0.3343,0.3046,0.2919,0.3189,0.3185,0.3175,0.3164,0.2713,0.2707,0.2702,0.2698,0,0.2191,0.2211,0.2243,0.2318,0.2372,0.2431,0.2534,0.2579,0.2722,0.2842,0.2991,0.3052,0.3155,0.3049,0.3054,0.3023,0.3016,0.2945,0.333,0.2727,0.2654,0.2648,0.2656,0.2655,0.2659,0.2662,0.2665,0.2666,0.2209,0.2236,0.2278,0.2354,0.242,0.2459,0.2472,0.2537,0.2622,0.2708,0.2857,0.2845,0.2856,0.2734,0.2664,0.2616,0.2809,0.2665,0.2678,0.2698,0.2578,0.2502,0.2455,0.2458,0.246,0.2463,0.2465,0,0.2235,0.2279,0.2326,0.2393,0.2435,0.2482,0.2538,0.2477,0.2482,0.2522,0.2569,0.234,0.2272,0.2312,0.2168,0.2143,0.2112,0.2062,0.2004,0.2049,0.209,0.1937,0.1645,0.1642,0.1639,0.1637,0,0,0.2254,0.2279,0.2287,0.2371,0.2439,0.2435,0.2426,0.2295,0.2273,0.2108,0.2059,0.2157,0.2242,0.1909,0.1866,0.1741,0.1882,0.1676,0.234,0.232,0.2356,0.2449,0.2267,0,0,0,0,0]},{"header":{"parameterUnit":"m.s-1","parameterCategory":2,"la1":30.2991,"la2":30.254,"lo1":-89.0895,"lo2":-89.0444,"dy":0.0017,"dx":0.0017,"nx":28,"ny":28,"refTime":"2025-04-13T09:00:00:Z","depth":"2","parameterNumber":3,"parameterNumberName":"V-component_of_CURRENTS"},"data":[0,0,0,0,0,0,0,0,0,0,0,0,0,0,0,0,0,0,0,0,0,0,0,0,0,0,0,0,0,0,0,0,0,0,0,0,0,0,0,0,0,0,0,0,0,0,0,0,0,0,0,0,0,0,0,0,0,0,0.0069,0.0069,0,0.0024,0.0024,0.0023,-0.0009,-0.0009,-0.0009,-0.0009,-0.0079,-0.008,-0.0082,0,0,0,0,0,0,0,0,0,0,0,0,0,0.0078,0.0078,0.0069,0.0069,0.0068,0.0024,0.0024,0.0023,-0.0009,-0.0009,-0.0009,-0.0009,-0.0078,-0.008,-0.0082,0,0,0,0,0,0,0,0,0,0,0,0,0,0.0057,0.0078,0.0069,0.0048,0.0045,0.0025,0.0024,0.0023,-0.0009,-0.0009,-0.0009,-0.0009,-0.0077,-0.008,-0.0082,-0.0093,0,0,-0.009,-0.0091,0,0,0,0,0,0,0,0,0.0058,0.0057,0.0051,0.0049,0.0047,0.0014,0.0001,-0.0017,-0.0009,0.0011,-0.0009,-0.0009,-0.0049,-0.0054,-0.0063,-0.0096,-0.0099,-0.009,-0.0092,-0.0093,-0.0094,0,0,0,0,0,0,0,0.006,0.0058,0.005,0.0051,0.0048,0.0024,0.0021,-0.0002,-0.0018,0.0009,0.0007,0.0004,-0.0051,-0.006,-0.0065,-0.01,-0.009,-0.0092,-0.0094,-0.0095,-0.013,-0.013,0,0,0,0,0,0,0.007,0.006,0.0052,0.0049,0.0053,0.0024,0.0021,0.0024,-0.0018,-0.0024,0.0004,0.0002,-0.0056,-0.0062,-0.0067,-0.0059,-0.0093,-0.0095,-0.0097,-0.0131,-0.013,-0.0129,0,0,0,0,0,0,0.0071,0.007,0.0054,0.0054,0.005,0.0025,0.0028,0.0023,0.0017,-0.0021,-0.0028,0.0003,-0.0056,-0.0064,-0.0073,-0.0063,-0.0096,-0.0099,-0.0131,-0.0131,-0.013,-0.0058,0,0,0,0,0,0,0.0071,0.0071,0.0076,0.0055,0.005,0.005,0.0028,0.0023,0.0015,0.0013,-0.0024,-0.0031,-0.0057,-0.0069,-0.0076,-0.0067,-0.0101,-0.0132,-0.0131,-0.013,-0.0061,-0.0055,-0.0049,0,0,0,0,0,0.0072,0.0083,0.0077,0.0076,0.0059,0.0051,0.0047,0.0026,0.0016,0.0018,-0.0001,-0.003,-0.0067,-0.007,-0.0079,-0.007,-0.0133,-0.0131,-0.013,-0.0064,-0.0056,-0.0049,0,0,0,0,0,0,0.0087,0.008,0.0073,0.0081,0.0071,0.0046,0.0045,0.0032,0.0018,0.0016,-0.002,-0.0028,-0.0034,-0.0061,-0.0063,-0.0078,-0.0106,-0.0106,-0.0053,-0.0046,-0.004,-0.0024,-0.0103,0,0,0,0,0,0.0094,0.0102,0.0089,0.0094,0.0092,0.007,0.0064,0.0052,0.0036,0.0029,0.0004,-0.002,-0.0035,-0.0046,-0.0067,-0.0074,-0.0099,-0.0075,-0.0069,-0.0064,-0.0056,-0.0079,-0.0075,-0.0125,-0.0125,-0.0125,0,0,0.01,0.0098,0.0101,0.0098,0.0087,0.0094,0.0066,0.0062,0.007,0.0024,0.0025,-0.0001,-0.0032,-0.0036,-0.0042,-0.0057,-0.0063,-0.0062,-0.0057,-0.0053,-0.0077,-0.0072,-0.0068,-0.0124,-0.0124,-0.0124,0,0,0.012,0.0117,0.0131,0.0129,0.0122,0.0111,0.0114,0.0097,0.0091,0.0088,0.0061,0.0048,0.0016,0.0002,-0.0011,0.0014,-0.003,0.0002,0.0043,0.0021,0.0026,0.0029,0.0005,0.0005,0.0004,0.0004,0.0004,0,0.0128,0.0147,0.0132,0.0147,0.0152,0.0125,0.0143,0.0135,0.0117,0.0121,0.0097,0.0067,0.0036,0.0041,0.0048,0.0028,0.0007,0.0021,0.003,0.0033,0.0035,0.0009,0.0009,0.0008,0.0007,0.0007,0.0007,0,0.0158,0.0175,0.0184,0.0198,0.0199,0.021,0.0201,0.0204,0.019,0.0179,0.0178,0.0138,0.0121,0.0107,0.0083,0.0088,0.0065,0.0042,0.0015,0.0044,0.0015,0.0014,0.0013,0.0012,0.0011,0.001,0,0,0.0177,0.0203,0.0207,0.0228,0.023,0.0238,0.0255,0.0266,0.0291,0.0256,0.0282,0.024,0.0215,0.02,0.0167,0.0144,0.0135,0.0103,0.01,0.0085,0.0086,0.0041,0.0034,0.0113,0.0113,0.0113,0.006,0,0.0208,0.0254,0.0254,0.0296,0.0323,0.0313,0.0337,0.0342,0.0339,0.0357,0.0314,0.0323,0.0253,0.0257,0.0218,0.0165,0.0134,0.0151,0.0054,0.0052,0.0012,0.0032,0.0059,0.0012,0.0058,0.0058,0.0058,0,0.0242,0.0272,0.0321,0.0367,0.0377,0.0398,0.0439,0.0459,0.0472,0.0474,0.046,0.0429,0.04,0.0338,0.024,0.0255,0.0175,0.012,0.0117,0.0049,0.0004,-0.0012,0.0006,0.0054,0.0055,0.0055,0.0055,0,0.0272,0.0321,0.0365,0.0378,0.042,0.0447,0.0473,0.0498,0.0543,0.0561,0.0597,0.0532,0.0531,0.0415,0.0284,0.0268,0.0172,0.0136,0.0017,0.0013,0.0004,-0.0001,0.0064,0.0064,0.0064,0.0064,0.0064,0,0.031,0.0349,0.0389,0.0415,0.0488,0.0496,0.0573,0.0597,0.0651,0.0729,0.0666,0.0707,0.0552,0.0474,0.0326,0.0167,0.0197,0.0029,-0.0002,0.0029,0.0027,0.0036,0.0034,0.0062,0.0063,0.0063,0.0063,0,0.0336,0.036,0.0421,0.0477,0.0507,0.0559,0.066,0.0719,0.0763,0.0866,0.0886,0.0853,0.0752,0.0575,0.0403,0.0243,0.0085,0.0019,0.0061,0.0035,-0.0071,-0.0069,-0.0114,-0.0116,-0.0118,-0.0119,-0.0121,0,0.0351,0.0386,0.0467,0.0524,0.0557,0.0642,0.071,0.0775,0.0867,0.0959,0.103,0.0967,0.0922,0.0635,0.0368,0.0102,0.0076,-0.0053,-0.0088,-0.0062,-0.0088,-0.0084,-0.008,-0.0069,-0.0069,-0.007,-0.007,0,0.0385,0.0411,0.0458,0.0571,0.0654,0.0758,0.088,0.0963,0.1058,0.1157,0.1242,0.1201,0.0943,0.0676,0.0312,0.0132,-0.0015,-0.0075,-0.0043,-0.0034,-0.0026,-0.0049,-0.0045,-0.0075,-0.0075,-0.0074,-0.0074,-0.0074,0.0406,0.0445,0.0508,0.0616,0.073,0.0864,0.0933,0.1093,0.1235,0.1376,0.1345,0.1299,0.1002,0.0527,0.0237,-0.0052,-0.0052,-0.0165,-0.0161,-0.0156,-0.0148,-0.0143,-0.0213,-0.0213,-0.0214,-0.0214,-0.0214,0,0.0428,0.0478,0.0559,0.0669,0.077,0.0855,0.1037,0.113,0.1305,0.1434,0.148,0.1178,0.0881,0.0569,0.0135,-0.0152,-0.0156,-0.023,-0.0166,-0.016,-0.0155,-0.0145,-0.0211,-0.0211,-0.0212,-0.0212,0,0,0.0439,0.049,0.0517,0.0658,0.0763,0.0901,0.0998,0.1189,0.1333,0.1453,0.1449,0.1343,0.0966,0.0647,0.028,0.005,0.0012,0.0,0.0024,0.0149,0.0158,-0.0098,-0.0073,0,0,0,0,0]}],[{"header":{"parameterUnit":"m.s-1","parameterCategory":2,"la1":30.2991,"la2":30.254,"lo1":-89.0895,"lo2":-89.0444,"dy":0.0017,"dx":0.0017,"nx":28,"ny":28,"refTime":"2025-04-13T09:00:00:Z","depth":"4","parameterNumber":2,"parameterNumberName":"U-component_of_CURRENTS"},"data":[0,0,0,0,0,0,0,0,0,0,0,0,0,0,0,0,0,0,0,0,0,0,0,0,0,0,0,0,0,0,0,0,0,0,0,0,0,0,0,0,0,0,0,0,0,0,0,0,0,0,0,0,0,0,0,0,0,0,0.1459,0.1459,0,0.1504,0.1504,0.1505,0.1538,0.1539,0.1539,0.154,0.1457,0.1454,0.1451,0,0,0,0,0,0,0,0,0,0,0,0,0,0.1355,0.1357,0.1459,0.146,0.146,0.1504,0.1504,0.1505,0.1538,0.1539,0.154,0.154,0.1458,0.1454,0.1451,0,0,0,0,0,0,0,0,0,0,0,0,0,0.1396,0.1357,0.1458,0.1486,0.1489,0.1504,0.1504,0.1505,0.1538,0.1539,0.154,0.1541,0.1459,0.1455,0.145,0.1403,0,0,0.1437,0.1435,0,0,0,0,0,0,0,0,0.1394,0.1399,0.1481,0.1484,0.1488,0.152,0.1438,0.1466,0.1537,0.1514,0.154,0.1541,0.1468,0.1463,0.1465,0.1399,0.1395,0.1437,0.1434,0.1432,0.1431,0,0,0,0,0,0,0,0.1391,0.1397,0.1472,0.1482,0.1486,0.1481,0.1487,0.1443,0.1479,0.1516,0.152,0.1532,0.1469,0.1469,0.1463,0.1394,0.1437,0.1433,0.1431,0.1429,0.1427,0.143,0,0,0,0,0,0,0.1396,0.1395,0.1471,0.1474,0.1447,0.1482,0.149,0.1505,0.1482,0.1482,0.1531,0.1534,0.1476,0.1468,0.146,0.1487,0.1432,0.1428,0.1426,0.1425,0.1428,0.1431,0,0,0,0,0,0,0.1394,0.1402,0.1469,0.1439,0.1447,0.1484,0.15,0.1506,0.1539,0.1496,0.1493,0.1564,0.1476,0.1466,0.1475,0.1481,0.1427,0.1423,0.1422,0.1426,0.1429,0.1486,0,0,0,0,0,0,0.139,0.1401,0.1425,0.1439,0.145,0.1499,0.15,0.1506,0.1545,0.155,0.1522,0.1514,0.1476,0.1482,0.1471,0.1474,0.1419,0.1419,0.1424,0.1428,0.1481,0.1491,0.15,0,0,0,0,0,0.1386,0.1408,0.1426,0.1436,0.1478,0.15,0.1505,0.153,0.1546,0.1563,0.1568,0.1516,0.1505,0.1481,0.1467,0.1468,0.1416,0.1422,0.1428,0.1477,0.1489,0.15,0,0,0,0,0,0,0.1368,0.1415,0.1434,0.1468,0.1495,0.1508,0.1532,0.1548,0.1566,0.1578,0.1539,0.1532,0.1542,0.1512,0.1487,0.1491,0.1454,0.1458,0.1496,0.1508,0.1517,0.154,0.1416,0,0,0,0,0,0.1378,0.1414,0.1446,0.1476,0.1495,0.152,0.1539,0.1557,0.1571,0.1582,0.1569,0.1561,0.1548,0.1538,0.1521,0.1511,0.1515,0.1512,0.1521,0.1529,0.1545,0.1588,0.1602,0.1449,0.1449,0.1449,0,0,0.1375,0.1411,0.1429,0.1477,0.1501,0.1523,0.1534,0.1571,0.1589,0.1564,0.1592,0.159,0.1559,0.1562,0.1563,0.1538,0.1575,0.1536,0.1543,0.1555,0.1596,0.161,0.1623,0.1453,0.1453,0.1452,0,0,0.138,0.1426,0.1454,0.1484,0.1535,0.1547,0.1567,0.1601,0.1622,0.1647,0.1642,0.167,0.1635,0.1632,0.1617,0.1673,0.1629,0.1659,0.1709,0.1751,0.1763,0.1774,0.1791,0.1803,0.1656,0.1657,0.1657,0,0.1377,0.1419,0.1463,0.1497,0.1523,0.1561,0.1585,0.1605,0.164,0.1662,0.1668,0.1687,0.167,0.1675,0.1711,0.169,0.1702,0.1657,0.1761,0.1772,0.1783,0.1797,0.1809,0.166,0.166,0.1659,0.1659,0,0.1392,0.1438,0.1458,0.1514,0.1545,0.1576,0.1611,0.1646,0.1679,0.1703,0.1744,0.1747,0.1764,0.1761,0.1751,0.1808,0.1789,0.177,0.1725,0.1801,0.1812,0.1824,0.1665,0.1664,0.1663,0.1662,0,0,0.1349,0.1449,0.1458,0.1494,0.1561,0.1583,0.1624,0.1668,0.1706,0.1747,0.1795,0.1812,0.1844,0.1837,0.1828,0.1871,0.196,0.1863,0.1863,0.1867,0.2042,0.1897,0.1895,0.1958,0.1961,0.1963,0.2016,0,0.1346,0.141,0.1459,0.1512,0.1547,0.1602,0.1636,0.1688,0.1731,0.1789,0.1821,0.1868,0.1856,0.1887,0.1927,0.1962,0.1997,0.1947,0.198,0.1981,0.1831,0.1906,0.1972,0.2025,0.2028,0.203,0.2031,0,0.1339,0.1388,0.1442,0.153,0.155,0.1587,0.1662,0.1701,0.1784,0.1827,0.1885,0.1921,0.1998,0.1984,0.2068,0.2038,0.2057,0.2073,0.2075,0.1929,0.1857,0.1938,0.2052,0.2051,0.2049,0.2048,0.2046,0,0.1284,0.1373,0.1419,0.1449,0.1546,0.1586,0.1639,0.1721,0.1772,0.1873,0.1934,0.1999,0.2064,0.2105,0.2147,0.2129,0.223,0.2197,0.207,0.2059,0.2146,0.2134,0.226,0.226,0.226,0.2259,0.2259,0,0.1255,0.1294,0.1406,0.1432,0.149,0.1574,0.1641,0.1703,0.1811,0.1866,0.1964,0.2012,0.2111,0.2168,0.218,0.2158,0.2253,0.2097,0.2072,0.2168,0.2158,0.2153,0.214,0.2261,0.2261,0.226,0.226,0,0.1185,0.126,0.132,0.1431,0.1471,0.1515,0.1646,0.1688,0.1811,0.1889,0.1939,0.2071,0.2139,0.2191,0.2266,0.2192,0.2192,0.2154,0.2255,0.2232,0.1985,0.1975,0.2025,0.202,0.2016,0.2013,0.2011,0,0.1152,0.1178,0.1303,0.1333,0.1387,0.1473,0.1522,0.1666,0.1708,0.1889,0.1908,0.2049,0.2101,0.2088,0.2157,0.2154,0.2122,0.2103,0.2047,0.1995,0.1966,0.1962,0.1957,0.2005,0.2004,0.2003,0.2002,0,0.107,0.1127,0.1172,0.1238,0.13,0.1365,0.145,0.1488,0.1634,0.1774,0.1836,0.1888,0.1953,0.1997,0.201,0.2002,0.2109,0.2062,0.207,0.2017,0.1971,0.1945,0.1945,0.1988,0.199,0.1992,0.1992,0,0.1006,0.1007,0.1066,0.1113,0.1177,0.1209,0.1296,0.1355,0.1439,0.1641,0.1655,0.1794,0.1924,0.1919,0.193,0.1915,0.1882,0.181,0.183,0.1845,0.1761,0.1674,0.1594,0,0,0,0,0,0.0927,0.09,0.0928,0.0956,0.1012,0.1055,0.1204,0.1296,0.1456,0.145,0.1551,0.1599,0.1654,0.1739,0.1686,0.1841,0.1879,0.1769,0.1803,0.1915,0.193,0.1847,0,0,0,0,0,0,0.0862,0.0871,0.0873,0.0801,0.0788,0.0839,0.094,0.1075,0.109,0.1271,0.1318,0.1453,0.1537,0.1628,0.1625,0.1647,0.1629,0.186,0.1856,0.1906,0.192,0.1933,0.1852,0,0,0,0,0]},{"header":{"parameterUnit":"m.s-1","parameterCategory":2,"la1":30.2991,"la2":30.254,"lo1":-89.0895,"lo2":-89.0444,"dy":0.0017,"dx":0.0017,"nx":28,"ny":28,"refTime":"2025-04-13T09:00:00:Z","depth":"4","parameterNumber":3,"parameterNumberName":"V-component_of_CURRENTS"},"data":[0,0,0,0,0,0,0,0,0,0,0,0,0,0,0,0,0,0,0,0,0,0,0,0,0,0,0,0,0,0,0,0,0,0,0,0,0,0,0,0,0,0,0,0,0,0,0,0,0,0,0,0,0,0,0,0,0,0,0.0026,0.0026,0,-0.0002,-0.0002,-0.0002,-0.0025,-0.0025,-0.0025,-0.0026,-0.007,-0.0071,-0.0072,0,0,0,0,0,0,0,0,0,0,0,0,0,0.0023,0.0024,0.0026,0.0026,0.0026,-0.0002,-0.0002,-0.0003,-0.0025,-0.0025,-0.0025,-0.0026,-0.007,-0.0071,-0.0072,0,0,0,0,0,0,0,0,0,0,0,0,0,0.0012,0.0024,0.0026,0.0012,0.001,-0.0001,-0.0002,-0.0003,-0.0025,-0.0025,-0.0026,-0.0026,-0.0069,-0.0071,-0.0072,-0.0077,0,0,-0.0077,-0.0078,0,0,0,0,0,0,0,0,0.0013,0.0012,0.0014,0.0013,0.0011,-0.0009,-0.0019,-0.0028,-0.0025,-0.0013,-0.0026,-0.0026,-0.005,-0.0054,-0.0059,-0.0079,-0.0081,-0.0077,-0.0078,-0.0079,-0.0079,0,0,0,0,0,0,0,0.0014,0.0013,0.0014,0.0014,0.0012,-0.0006,-0.0007,-0.0021,-0.0031,-0.0014,-0.0015,-0.0017,-0.0052,-0.0058,-0.006,-0.0081,-0.0077,-0.0078,-0.0079,-0.008,-0.0098,-0.0098,0,0,0,0,0,0,0.0021,0.0014,0.0015,0.0014,0.0012,-0.0005,-0.0007,-0.0003,-0.003,-0.0034,-0.0017,-0.0018,-0.0055,-0.0059,-0.0062,-0.0054,-0.0079,-0.008,-0.0081,-0.0099,-0.0098,-0.0098,0,0,0,0,0,0,0.0021,0.0022,0.0016,0.0013,0.0012,-0.0005,-0.0,-0.0004,-0.0008,-0.0032,-0.0037,-0.0017,-0.0055,-0.006,-0.0064,-0.0056,-0.0081,-0.0082,-0.0099,-0.0099,-0.0098,-0.0048,0,0,0,0,0,0,0.0022,0.0022,0.0026,0.0014,0.0012,0.0016,-0.0,-0.0004,-0.0008,-0.001,-0.0034,-0.0039,-0.0056,-0.0061,-0.0065,-0.0059,-0.0083,-0.01,-0.0099,-0.0098,-0.005,-0.0045,-0.0041,0,0,0,0,0,0.0022,0.003,0.0027,0.0027,0.0019,0.0016,0.0014,0.0,-0.0008,-0.0005,-0.0018,-0.0038,-0.0059,-0.0062,-0.0067,-0.0061,-0.01,-0.0099,-0.0098,-0.0052,-0.0046,-0.0042,0,0,0,0,0,0,0.0028,0.0029,0.0024,0.0032,0.0027,0.0013,0.0013,0.0004,-0.0004,-0.0006,-0.0029,-0.0034,-0.0036,-0.0054,-0.0057,-0.0064,-0.0084,-0.0084,-0.0047,-0.0042,-0.0038,-0.0032,-0.0085,0,0,0,0,0,0.0033,0.0041,0.0036,0.0041,0.0041,0.0028,0.0024,0.0017,0.0008,0.0004,-0.0012,-0.0027,-0.0036,-0.0043,-0.0055,-0.0058,-0.0089,-0.0059,-0.0055,-0.0051,-0.005,-0.0086,-0.0086,-0.0095,-0.0095,-0.0095,0,0,0.0034,0.0037,0.0039,0.0042,0.0037,0.0044,0.0025,0.0024,0.0031,0.0,0.0004,-0.0012,-0.0033,-0.0033,-0.0037,-0.0048,-0.0065,-0.005,-0.0047,-0.0047,-0.0085,-0.0085,-0.0084,-0.0094,-0.0094,-0.0094,0,0,0.0045,0.0046,0.0059,0.0061,0.006,0.0055,0.0058,0.0049,0.0047,0.0049,0.003,0.0021,0.0004,-0.0007,-0.0016,0.0003,-0.004,-0.0003,0.0021,-0.0014,-0.0014,-0.0014,-0.0054,-0.0058,-0.0003,-0.0003,-0.0002,0,0.0046,0.0065,0.006,0.0074,0.008,0.0064,0.008,0.0076,0.0067,0.0068,0.0056,0.0033,0.0017,0.0015,0.0024,0.0013,-0.0018,0.0006,-0.0009,-0.001,-0.0011,-0.0052,-0.0057,-0.0,-0.0,-0.0001,-0.0001,0,0.0069,0.0085,0.0092,0.0108,0.0113,0.0123,0.0122,0.0126,0.0118,0.011,0.0106,0.0081,0.0066,0.006,0.0049,0.0038,0.0016,0.0002,-0.0021,-0.0007,-0.0051,-0.0057,0.0004,0.0003,0.0002,0.0001,0,0,0.0072,0.0103,0.0106,0.0124,0.0135,0.0142,0.0158,0.0167,0.0176,0.0158,0.0162,0.0145,0.0124,0.0113,0.0091,0.0062,0.0032,0.0034,0.0031,-0.0004,-0.0054,-0.0053,-0.0061,0.0014,0.0013,0.0012,-0.0082,0,0.0092,0.0128,0.0138,0.0172,0.0192,0.0193,0.0213,0.0217,0.0209,0.0208,0.0179,0.0174,0.0147,0.0141,0.0108,0.0054,0.0018,0.0058,-0.0063,-0.0067,-0.0068,-0.0067,0.001,-0.0087,-0.0089,-0.009,-0.0091,0,0.0113,0.0137,0.0175,0.0215,0.0224,0.0242,0.0266,0.0282,0.0277,0.0271,0.0251,0.0223,0.019,0.0161,0.0065,0.0091,0.0025,-0.0026,-0.0031,-0.0052,-0.0078,-0.0105,-0.0103,-0.0102,-0.0101,-0.01,-0.0099,0,0.0121,0.0165,0.0197,0.021,0.0249,0.0269,0.029,0.0299,0.0319,0.0308,0.0311,0.0258,0.0236,0.0149,0.0052,0.0055,-0.0066,-0.0079,-0.0146,-0.0148,-0.0142,-0.0141,-0.0156,-0.0156,-0.0156,-0.0155,-0.0155,0,0.014,0.0166,0.0206,0.0225,0.0269,0.0291,0.0331,0.0342,0.0361,0.0381,0.0345,0.0337,0.0232,0.0154,0.0057,-0.0062,-0.0068,-0.0144,-0.017,-0.0119,-0.0114,-0.0148,-0.0145,-0.0159,-0.0158,-0.0157,-0.0157,0,0.0136,0.0165,0.0204,0.0253,0.0275,0.0303,0.0368,0.0393,0.0412,0.0434,0.0436,0.0391,0.0293,0.0175,0.0028,-0.0049,-0.0167,-0.0211,-0.015,-0.0172,-0.0229,-0.0223,-0.0296,-0.0297,-0.0297,-0.0298,-0.0298,0,0.0134,0.0155,0.0215,0.0243,0.0266,0.032,0.0361,0.041,0.0441,0.0462,0.0471,0.04,0.0349,0.0152,0.0019,-0.017,-0.0195,-0.0261,-0.024,-0.0224,-0.0243,-0.0236,-0.0229,-0.0299,-0.0299,-0.0299,-0.03,0,0.0122,0.0142,0.0172,0.0236,0.0285,0.0346,0.041,0.0446,0.0499,0.051,0.0506,0.0419,0.0307,0.0157,0.0012,-0.0125,-0.0218,-0.0268,-0.0267,-0.0249,-0.0229,-0.0245,-0.0238,-0.0302,-0.0301,-0.0301,-0.0301,0,0.0104,0.0119,0.0167,0.0231,0.0292,0.0368,0.0403,0.0457,0.0505,0.0539,0.0526,0.0425,0.0364,0.0178,0.0041,-0.0088,-0.0121,-0.0163,-0.0168,-0.0168,-0.0099,-0.0052,-0.0095,0,0,0,0,0,0.009,0.0122,0.0164,0.025,0.0313,0.0368,0.0437,0.0471,0.0526,0.0531,0.0542,0.0443,0.0267,0.0192,0.0064,0.0007,-0.0162,-0.015,-0.0217,-0.0314,-0.0311,-0.0251,0,0,0,0,0,0,0.008,0.0117,0.0159,0.0263,0.0331,0.0417,0.0469,0.0501,0.0515,0.0539,0.0451,0.0415,0.0241,0.035,0.0068,0.0027,-0.0034,-0.023,-0.0233,-0.0315,-0.0313,-0.0311,-0.0248,0,0,0,0,0]}]]